TimeEDT,TemperatureF,Dew PointF,Humidity,Sea Level PressureIn,VisibilityMPH,Wind Direction,Wind SpeedMPH,Gust SpeedMPH,PrecipitationIn,Events,Conditions,WindDirDegrees,DateUTC
12:53 AM,78.1,73.0,84,29.88,6.0,SSE,4.6,-,N/A,,Haze,150,2013-03-24 04:53:00
1:53 AM,78.1,72.0,81,29.87,10.0,South,6.9,-,N/A,,Clear,190,2013-03-24 05:53:00
2:53 AM,77.0,71.1,82,29.85,10.0,SSW,6.9,-,N/A,,Clear,200,2013-03-24 06:53:00
3:53 AM,77.0,72.0,84,29.84,9.0,Variable,4.6,-,N/A,,Clear,0,2013-03-24 07:53:00
4:53 AM,77.0,72.0,84,29.83,8.0,South,6.9,-,N/A,,Clear,190,2013-03-24 08:53:00
5:53 AM,77.0,72.0,84,29.83,8.0,South,5.8,-,N/A,,Clear,180,2013-03-24 09:53:00
6:53 AM,77.0,72.0,84,29.83,8.0,South,5.8,-,N/A,,Clear,180,2013-03-24 10:53:00
7:53 AM,77.0,72.0,84,29.83,6.0,South,6.9,-,N/A,,Haze,180,2013-03-24 11:53:00
8:53 AM,79.0,72.0,79,29.83,7.0,South,10.4,19.6,N/A,,Clear,170,2013-03-24 12:53:00
9:53 AM,81.0,72.0,74,29.82,8.0,South,10.4,23.0,N/A,,Clear,170,2013-03-24 13:53:00
10:53 AM,82.9,72.0,69,29.81,9.0,South,9.2,20.7,N/A,,Clear,180,2013-03-24 14:53:00
11:53 AM,82.9,73.0,72,29.81,9.0,South,12.7,21.9,N/A,,Clear,190,2013-03-24 15:53:00
12:53 PM,84.0,73.0,69,29.78,10.0,South,12.7,23.0,N/A,,Clear,180,2013-03-24 16:53:00
1:53 PM,86.0,73.0,65,29.79,10.0,SSW,8.1,-,N/A,,Clear,210,2013-03-24 17:53:00
2:53 PM,86.0,72.0,63,29.78,10.0,SW,10.4,17.3,N/A,,Clear,220,2013-03-24 18:53:00
3:53 PM,86.0,73.0,65,29.75,10.0,SSW,5.8,-,N/A,,Clear,210,2013-03-24 19:53:00
4:53 PM,86.0,70.0,59,29.76,10.0,West,12.7,19.6,N/A,,Clear,270,2013-03-24 20:53:00
5:53 PM,86.0,66.9,53,29.75,10.0,WSW,11.5,21.9,N/A,,Clear,250,2013-03-24 21:53:00
6:53 PM,84.0,68.0,58,29.76,10.0,WSW,6.9,20.7,N/A,,Clear,250,2013-03-24 22:53:00
7:53 PM,81.0,71.1,72,29.78,10.0,West,5.8,-,N/A,,Clear,270,2013-03-24 23:53:00
8:53 PM,81.0,71.1,72,29.79,10.0,WSW,4.6,-,N/A,,Clear,250,2013-03-25 00:53:00
9:53 PM,79.0,71.1,77,29.81,10.0,Calm,Calm,-,N/A,,Clear,0,2013-03-25 01:53:00
10:53 PM,77.0,71.1,82,29.82,10.0,Calm,Calm,-,N/A,,Clear,0,2013-03-25 02:53:00
11:53 PM,78.1,71.1,79,29.81,10.0,Calm,Calm,-,N/A,,Overcast,0,2013-03-25 03:53:00